SR9NLI Weather Reports


Display with metric or nautical units.
time (UTC)temp
F
wind
direction
speed
MPH
gust
MPH
rain 1hr
in
rain 24hr
in
rain mn
in
humidity
%
barometer
mb
20260507215014 51 298 5.0 7.0 0.00 0.00 0.00 100 955.9
20260507214801 51 295 6.0 8.0 0.00 0.00 0.00 100 955.8
20260507214557 51 305 6.0 8.0 0.00 0.00 0.00 100 956.0
20260507214457 51 308 5.0 8.0 0.00 0.00 0.00 100 956.0
20260507214354 51 321 4.0 8.0 0.00 0.00 0.00 100 956.1
20260507214151 51 327 2.0 4.0 0.00 0.00 0.00 100 956.2
20260507213948 51 0 1.0 2.0 0.00 0.00 0.00 100 956.1
20260507213847 51 0 0.0 2.0 0.00 0.00 0.00 100 956.1
20260507213744 51 0 0.0 2.0 0.00 0.00 0.00 100 956.1
20260507213541 51 0 0.0 1.0 0.00 0.00 0.00 100 956.1
20260507213338 51 0 0.0 1.0 0.00 0.00 0.00 100 956.1
20260507213237 51 0 0.0 1.0 0.00 0.00 0.00 100 956.1
20260507213135 51 0 0.0 1.0 0.00 0.00 0.00 100 956.1
20260507212931 51 0 0.0 1.0 0.00 0.00 0.00 100 956.1
20260507212729 51 0 0.0 1.0 0.00 0.00 0.00 100 956.1
20260507212628 51 0 0.0 1.0 0.00 0.00 0.00 100 956.1
20260507212525 51 0 0.0 2.0 0.00 0.00 0.00 100 956.1
20260507212323 51 0 0.0 2.0 0.00 0.00 0.00 100 956.0
20260507212120 51 0 0.0 2.0 0.00 0.00 0.00 100 955.9
20260507212019 51 0 0.0 2.0 0.00 0.00 0.00 100 955.9
20260507211917 51 0 0.0 2.0 0.00 0.00 0.00 100 955.9
20260507211714 51 0 0.0 2.0 0.00 0.00 0.00 100 955.8
20260507211511 51 0 0.0 1.0 0.00 0.00 0.00 100 955.9
20260507211411 51 0 0.0 1.0 0.00 0.00 0.00 100 955.9
20260507211308 51 0 0.0 1.0 0.00 0.00 0.00 100 955.8
20260507211105 51 0 0.0 2.0 0.00 0.00 0.00 100 955.9
20260507210902 51 175 0.0 2.0 0.00 0.00 0.00 100 955.8
20260507210801 51 175 1.0 3.0 0.00 0.00 0.00 100 955.7
20260507210659 51 176 1.0 3.0 0.00 0.00 0.00 100 955.7
20260507210456 51 181 0.0 3.0 0.00 0.00 0.00 100 955.7
20260507210252 51 0 0.0 1.0 0.00 0.00 0.00 100 955.7
20260507210151 51 0 0.0 1.0 0.00 0.00 0.00 100 955.6
20260507210049 51 0 0.0 1.0 0.00 0.00 0.00 100 955.7
20260507205846 51 0 0.0 1.0 0.00 0.00 0.00 100 955.7
20260507205642 51 276 1.0 2.0 0.00 0.00 0.00 100 955.7
20260507205541 51 279 1.0 2.0 0.00 0.00 0.00 100 955.6
20260507205439 51 279 1.0 2.0 0.00 0.00 0.00 100 955.7
20260507205236 51 0 0.0 1.0 0.00 0.00 0.00 100 955.6
20260507205033 51 0 0.0 2.0 0.00 0.00 0.00 100 955.6
20260507204931 51 0 0.0 2.0 0.00 0.00 0.00 100 955.6
20260507204829 51 0 0.0 2.0 0.00 0.00 0.00 100 955.7
20260507204626 51 247 1.0 2.0 0.00 0.00 0.00 100 955.7
20260507204423 51 288 1.0 2.0 0.00 0.00 0.00 100 955.7
20260507204323 51 305 2.0 2.0 0.00 0.00 0.00 100 955.6
20260507204220 51 328 2.0 3.0 0.00 0.00 0.00 100 955.6
20260507204017 51 7 2.0 3.0 0.00 0.00 0.00 100 955.4
20260507203813 51 22 2.0 3.0 0.00 0.00 0.00 100 955.5
20260507203713 51 21 2.0 3.0 0.00 0.00 0.00 100 955.6
20260507203610 51 12 2.0 3.0 0.00 0.00 0.00 100 955.6
20260507203407 51 302 1.0 2.0 0.00 0.00 0.00 100 955.5
20260507203203 51 295 1.0 2.0 0.00 0.00 0.00 100 955.5
20260507203103 51 299 1.0 2.0 0.00 0.00 0.00 100 955.6
20260507203000 51 0 0.0 2.0 0.00 0.00 0.00 100 955.6
20260507202758 51 0 0.0 1.0 0.00 0.00 0.00 100 955.5
20260507202554 51 0 0.0 1.0 0.00 0.00 0.00 100 955.5
20260507202453 51 0 0.0 1.0 0.00 0.00 0.00 100 955.4
20260507202351 51 0 0.0 1.0 0.00 0.00 0.00 100 955.5
20260507202148 51 0 0.0 2.0 0.00 0.00 0.00 100 955.5
20260507201944 51 0 1.0 2.0 0.00 0.00 0.00 100 955.4
20260507201843 51 37 1.0 3.0 0.00 0.00 0.00 100 955.5
20260507201741 51 31 2.0 3.0 0.00 0.00 0.00 100 955.4
20260507201537 50 44 2.0 3.0 0.00 0.00 0.00 100 955.4
20260507201334 50 58 1.0 3.0 0.00 0.00 0.00 100 955.4
20260507201233 50 0 0.0 2.0 0.00 0.00 0.00 100 955.4
20260507201131 50 0 0.0 2.0 0.00 0.00 0.00 100 955.4
20260507200928 50 0 0.0 2.0 0.00 0.00 0.00 100 955.4
20260507200726 50 0 0.0 3.0 0.00 0.00 0.00 100 955.4
20260507200625 50 0 0.0 3.0 0.00 0.00 0.00 100 955.4
20260507200523 50 0 0.0 3.0 0.00 0.00 0.00 100 955.4
20260507200320 50 288 2.0 3.0 0.00 0.00 0.00 100 955.4
20260507200117 50 314 3.0 6.0 0.00 0.00 0.00 100 955.4
20260507200016 50 320 3.0 6.0 0.00 0.00 0.00 100 955.4
20260507195914 50 318 3.0 6.0 0.00 0.00 0.00 100 955.4
20260507195710 50 313 4.0 7.0 0.00 0.00 0.00 100 955.3
20260507195507 50 334 4.0 7.0 0.00 0.00 0.00 100 955.3
20260507195406 50 341 4.0 7.0 0.00 0.00 0.00 100 955.4
20260507195305 50 348 5.0 8.0 0.00 0.00 0.00 100 955.4
20260507195100 49 342 6.0 11.0 0.00 0.00 0.00 100 955.4
20260507194857 49 332 6.0 11.0 0.00 0.00 0.00 100 955.5
20260507194756 50 330 5.0 11.0 0.00 0.00 0.00 100 955.5
20260507194654 50 332 4.0 11.0 0.00 0.00 0.00 100 955.5
20260507194450 50 331 3.0 6.0 0.00 0.00 0.00 100 955.3
20260507194247 50 329 2.0 3.0 0.00 0.00 0.00 100 955.1
20260507194146 50 325 2.0 3.0 0.00 0.00 0.00 100 955.1
20260507194044 50 322 1.0 2.0 0.00 0.00 0.00 100 955.1
20260507193841 51 0 0.0 1.0 0.00 0.00 0.00 100 955.1
20260507193637 51 0 0.0 1.0 0.00 0.00 0.00 100 955.1
20260507193536 50 0 0.0 1.0 0.00 0.00 0.00 100 955.1
20260507193434 50 0 0.0 1.0 0.00 0.00 0.00 100 955.1
20260507193231 51 0 0.0 1.0 0.00 0.00 0.00 100 955.0
20260507193028 51 0 0.0 1.0 0.00 0.00 0.00 100 955.1
20260507192927 51 0 0.0 1.0 0.00 0.00 0.00 100 955.1
20260507192825 50 0 0.0 1.0 0.00 0.00 0.00 100 955.2
20260507192621 50 0 0.0 1.0 0.00 0.00 0.00 100 955.2
20260507192419 50 0 0.0 1.0 0.00 0.00 0.00 100 955.1
20260507192318 50 0 0.0 1.0 0.00 0.00 0.00 100 955.1
20260507192215 50 0 0.0 1.0 0.00 0.00 0.00 100 955.1
20260507192011 50 303 1.0 2.0 0.00 0.00 0.00 100 955.1
20260507191808 50 313 1.0 2.0 0.00 0.00 0.00 100 955.1
20260507191707 50 309 1.0 2.0 0.00 0.00 0.00 100 955.0
20260507191605 50 306 1.0 2.0 0.00 0.00 0.00 100 955.1
20260507191402 50 306 2.0 4.0 0.00 0.00 0.00 100 955.1
20260507191159 50 306 3.0 4.0 0.00 0.00 0.00 100 955.0
20260507191058 50 303 3.0 4.0 0.00 0.00 0.00 100 955.0
20260507190943 50 302 2.0 4.0 0.00 0.00 0.00 100 955.1
20260507190739 50 306 2.0 3.0 0.00 0.00 0.00 100 955.1
20260507190536 50 315 2.0 4.0 0.00 0.00 0.00 100 955.1
20260507190435 50 319 2.0 4.0 0.00 0.00 0.00 100 955.0
20260507190333 50 323 2.0 4.0 0.00 0.00 0.00 100 955.0
20260507190130 50 330 2.0 4.0 0.00 0.00 0.00 100 955.0
20260507185927 50 328 2.0 4.0 0.00 0.00 0.00 100 955.0
20260507185826 50 329 2.0 4.0 0.00 0.00 0.00 100 955.0
20260507185724 50 331 2.0 4.0 0.00 0.00 0.00 100 955.0
20260507185520 50 333 1.0 2.0 0.00 0.00 0.00 100 954.9
20260507185317 50 332 1.0 2.0 0.00 0.00 0.00 100 954.8
20260507185216 50 337 1.0 2.0 0.00 0.00 0.00 100 954.8
20260507185114 50 343 2.0 3.0 0.00 0.00 0.00 100 954.7
20260507184911 50 355 2.0 3.0 0.00 0.00 0.00 100 954.8
20260507184708 50 349 3.0 4.0 0.00 0.00 0.00 100 954.7
20260507184607 50 342 3.0 4.0 0.00 0.00 0.00 100 954.7
20260507184505 50 331 2.0 4.0 0.00 0.00 0.00 100 954.7
20260507184302 51 305 1.0 3.0 0.00 0.00 0.00 100 954.7
20260507184059 51 0 1.0 3.0 0.00 0.00 0.00 100 954.7
20260507183957 51 187 1.0 3.0 0.00 0.00 0.00 100 954.7
20260507183855 51 184 1.0 3.0 0.00 0.00 0.00 100 954.6
20260507183652 51 171 2.0 4.0 0.00 0.00 0.00 100 954.5
20260507183449 51 168 2.0 4.0 0.00 0.00 0.00 100 954.4
20260507183349 51 171 2.0 4.0 0.00 0.00 0.00 100 954.5
20260507183246 51 178 1.0 3.0 0.00 0.00 0.00 100 954.5
20260507183042 51 0 1.0 3.0 0.00 0.00 0.00 100 954.4
20260507182839 51 132 1.0 3.0 0.00 0.00 0.00 100 954.6
20260507182739 51 130 2.0 3.0 0.00 0.00 0.00 100 954.5
20260507182637 51 138 2.0 3.0 0.00 0.00 0.00 100 954.5
20260507182433 51 149 2.0 3.0 0.00 0.00 0.00 100 954.5
20260507182230 51 148 2.0 4.0 0.00 0.00 0.00 100 954.6
20260507182130 51 143 2.0 4.0 0.00 0.00 0.00 100 954.6
20260507182027 51 144 2.0 3.0 0.00 0.00 0.00 100 954.4
20260507181824 51 0 0.0 3.0 0.00 0.00 0.00 100 954.5
20260507181620 51 0 0.0 1.0 0.00 0.00 0.00 100 954.5
20260507181519 51 0 0.0 1.0 0.00 0.00 0.00 100 954.5
20260507181417 51 0 0.0 1.0 0.00 0.00 0.00 100 954.3
20260507181214 51 323 1.0 2.0 0.00 0.00 0.00 100 954.4
20260507181011 51 319 1.0 3.0 0.00 0.00 0.00 100 954.4
20260507180909 51 325 2.0 3.0 0.00 0.00 0.00 100 954.4
20260507180807 51 344 1.0 3.0 0.00 0.00 0.00 100 954.4
20260507180604 51 48 2.0 3.0 0.00 0.00 0.00 100 954.3
20260507180400 51 69 2.0 3.0 0.00 0.00 0.00 100 954.3
20260507180300 51 68 2.0 3.0 0.00 0.00 0.00 100 954.3
20260507180157 51 68 2.0 3.0 0.00 0.00 0.00 100 954.4
20260507175954 51 60 2.0 3.0 0.00 0.00 0.00 100 954.5
20260507175751 52 80 2.0 3.0 0.00 0.00 0.00 100 954.2
20260507175649 52 84 1.0 3.0 0.00 0.00 0.00 100 954.2
20260507175547 52 98 1.0 3.0 0.00 0.00 0.00 100 954.2
20260507175344 52 0 0.0 2.0 0.00 0.00 0.00 100 954.3
20260507175140 52 0 0.0 1.0 0.00 0.00 0.00 100 954.3
20260507175040 52 0 0.0 1.0 0.00 0.00 0.00 100 954.3
20260507174937 52 0 0.0 1.0 0.00 0.00 0.00 100 954.2
20260507174734 52 0 0.0 1.0 0.00 0.00 0.00 100 954.3
20260507174531 52 0 0.0 1.0 0.00 0.00 0.00 100 954.2
20260507174430 53 0 0.0 1.0 0.00 0.00 0.00 100 954.2
20260507174328 53 0 0.0 3.0 0.00 0.00 0.00 100 954.2
20260507174125 52 0 0.0 3.0 0.00 0.00 0.00 100 954.3
20260507173922 52 0 0.0 2.0 0.00 0.00 0.00 100 954.4
20260507173822 52 0 0.0 2.0 0.00 0.00 0.00 100 954.4
20260507173719 52 172 1.0 4.0 0.00 0.00 0.00 100 954.3
20260507173516 52 169 1.0 4.0 0.00 0.00 0.00 100 954.2
20260507173313 52 174 1.0 4.0 0.00 0.00 0.00 100 954.3
20260507173212 52 174 1.0 4.0 0.00 0.00 0.00 100 954.3
20260507173110 52 175 1.0 5.0 0.00 0.00 0.00 100 954.3
20260507172907 52 175 1.0 5.0 0.00 0.00 0.00 100 954.4
20260507172704 52 180 1.0 3.0 0.00 0.00 0.00 100 954.3
20260507172603 52 0 1.0 3.0 0.00 0.00 0.00 100 954.3
20260507172501 52 0 0.0 3.0 0.00 0.00 0.00 100 954.3
20260507172258 52 0 1.0 3.0 0.00 0.00 0.00 100 954.3
20260507172054 52 172 1.0 4.0 0.00 0.00 0.00 100 954.2
20260507171953 52 172 1.0 4.0 0.00 0.00 0.00 100 954.2
20260507171851 52 171 2.0 4.0 0.00 0.00 0.00 100 954.2
20260507171647 52 175 2.0 6.0 0.00 0.00 0.00 100 954.2
20260507171445 52 176 2.0 7.0 0.00 0.00 0.00 100 954.2
20260507171344 52 170 3.0 8.0 0.00 0.00 0.00 100 954.2
20260507171241 52 166 5.0 10.0 0.00 0.00 0.00 100 954.2
20260507171038 52 163 7.0 11.0 0.00 0.00 0.00 100 954.2
20260507170834 51 159 7.0 11.0 0.00 0.00 0.00 100 954.2
20260507170734 51 158 6.0 11.0 0.00 0.00 0.00 100 954.2
20260507170631 51 156 5.0 11.0 0.00 0.00 0.00 100 954.3
20260507170428 51 156 4.0 8.0 0.00 0.00 0.00 100 954.1
20260507170225 51 164 2.0 5.0 0.00 0.00 0.00 100 954.1
20260507170124 51 164 2.0 4.0 0.00 0.00 0.00 100 954.1
20260507170022 51 155 2.0 5.0 0.00 0.00 0.00 100 954.2
20260507165818 51 139 3.0 5.0 0.00 0.00 0.00 100 954.1
20260507165616 51 142 2.0 4.0 0.00 0.00 0.00 100 954.1
20260507165514 51 147 2.0 4.0 0.00 0.00 0.00 100 954.1
20260507165412 51 152 2.0 4.0 0.00 0.00 0.00 100 954.0
20260507165208 51 159 2.0 8.0 0.00 0.00 0.00 100 954.1
20260507165005 51 152 5.0 11.0 0.00 0.00 0.00 100 954.1
20260507164905 51 150 6.0 11.0 0.00 0.00 0.00 100 954.0
20260507164802 51 146 6.0 11.0 0.00 0.00 0.00 100 954.0
20260507164559 51 146 5.0 9.0 0.00 0.00 0.00 100 953.9
20260507164356 51 140 6.0 9.0 0.00 0.00 0.00 100 953.9
20260507164256 51 137 6.0 9.0 0.00 0.00 0.00 100 953.9
20260507164154 51 135 6.0 9.0 0.00 0.00 0.00 100 953.9
20260507163951 51 146 4.0 7.0 0.00 0.00 0.00 100 954.0
20260507163748 51 157 2.0 7.0 0.00 0.00 0.00 100 953.9
20260507163648 51 172 2.0 5.0 0.00 0.00 0.00 100 953.9
20260507163546 51 181 2.0 7.0 0.00 0.00 0.00 100 953.9
20260507163342 52 203 2.0 7.0 0.00 0.00 0.00 100 953.9
20260507163139 52 247 1.0 6.0 0.00 0.00 0.00 100 953.9
20260507163025 52 0 1.0 6.0 0.00 0.00 0.00 100 953.8
20260507162923 52 246 1.0 7.0 0.00 0.00 0.00 100 953.8
20260507162720 52 241 1.0 7.0 0.00 0.00 0.00 100 953.9
20260507162517 51 236 1.0 6.0 0.00 0.00 0.00 100 953.9
20260507162416 51 232 2.0 6.0 0.00 0.00 0.00 100 953.9
20260507162314 51 231 1.0 6.0 0.00 0.00 0.00 100 953.9
20260507162110 51 237 1.0 5.0 0.00 0.00 0.00 100 954.0
20260507161907 51 238 1.0 9.0 0.00 0.00 0.00 100 954.0
20260507161806 51 236 2.0 9.0 0.00 0.00 0.00 100 954.0
20260507161704 51 232 2.0 9.0 0.00 0.00 0.00 100 954.0
20260507161501 51 223 2.0 9.0 0.00 0.00 0.00 100 954.0
20260507161258 51 222 2.0 8.0 0.00 0.00 0.00 100 954.0
20260507161158 51 223 2.0 8.0 0.00 0.00 0.00 100 954.2
20260507161055 51 239 1.0 8.0 0.00 0.00 0.00 100 954.1
20260507160852 51 288 2.0 5.0 0.00 0.00 0.00 100 954.1
20260507160649 51 281 3.0 7.0 0.00 0.00 0.00 100 954.2
20260507160548 51 282 3.0 7.0 0.00 0.00 0.00 100 954.3
20260507160446 51 264 4.0 7.0 0.00 0.00 0.00 100 954.3
20260507160243 51 260 4.0 10.0 0.00 0.00 0.00 100 954.3
20260507160040 51 251 4.0 10.0 0.00 0.00 0.00 100 954.3
20260507155939 51 231 3.0 10.0 0.00 0.00 0.00 100 954.4
20260507155837 51 222 2.0 10.0 0.00 0.00 0.00 100 954.3
20260507155634 51 236 4.0 14.0 0.00 0.00 0.00 100 954.3
20260507155431 52 250 7.0 18.0 0.00 0.00 0.00 100 954.4
20260507155330 52 261 8.0 19.0 0.00 0.00 0.00 100 954.4
20260507155228 52 262 9.0 18.0 0.00 0.00 0.00 100 954.4
20260507155024 53 262 10.0 18.0 0.00 0.00 0.00 100 954.3
20260507154821 53 254 8.0 18.0 0.00 0.00 0.00 100 954.4
20260507154720 53 252 6.0 15.0 0.00 0.00 0.00 100 954.4
20260507154617 53 252 4.0 13.0 0.00 0.00 0.00 100 954.3
20260507154414 53 255 3.0 10.0 0.00 0.00 0.00 100 954.2
20260507154211 53 262 3.0 6.0 0.00 0.00 0.00 100 954.1
20260507154111 53 273 4.0 6.0 0.00 0.00 0.00 100 954.0
20260507154010 53 283 4.0 6.0 0.00 0.00 0.00 100 954.0
20260507153805 53 289 4.0 6.0 0.00 0.00 0.00 100 953.9
20260507153602 53 290 3.0 5.0 0.00 0.00 0.00 100 953.9
20260507153502 53 284 3.0 5.0 0.00 0.00 0.00 100 953.9
20260507153359 53 277 3.0 5.0 0.00 0.00 0.00 100 953.9
20260507153156 53 264 2.0 5.0 0.00 0.00 0.00 100 953.9
20260507152953 53 0 1.0 5.0 0.00 0.00 0.00 100 954.0
20260507152852 53 0 1.0 4.0 0.00 0.00 0.00 100 953.9
20260507152750 53 0 1.0 4.0 0.00 0.00 0.00 100 953.9
20260507152547 53 0 1.0 4.0 0.00 0.00 0.00 100 953.9
20260507152344 53 295 1.0 4.0 0.00 0.00 0.00 100 953.9
20260507152243 53 307 2.0 8.0 0.00 0.00 0.00 100 954.0
20260507152140 53 316 3.0 8.0 0.00 0.00 0.00 100 953.9
20260507151937 53 339 4.0 10.0 0.00 0.00 0.00 100 953.9
20260507151734 53 343 6.0 10.0 0.00 0.00 0.00 100 953.8
20260507151633 53 342 7.0 12.0 0.00 0.00 0.00 100 953.9
20260507151531 53 343 8.0 14.0 0.00 0.00 0.00 100 953.9
20260507151328 54 323 11.0 23.0 0.00 0.00 0.00 100 953.8
20260507151125 54 308 13.0 23.0 0.00 0.00 0.00 100 953.8
20260507151024 55 304 13.0 23.0 0.00 0.00 0.00 100 953.7
20260507150921 55 306 12.0 16.0 0.00 0.00 0.00 100 953.8
20260507150719 55 302 12.0 16.0 0.00 0.00 0.00 100 953.7
20260507150516 55 300 8.0 14.0 0.00 0.00 0.00 100 953.8
20260507150414 55 299 7.0 14.0 0.00 0.00 0.00 100 953.8
20260507150312 55 299 5.0 14.0 0.00 0.00 0.00 100 953.7
20260507150109 56 295 3.0 5.0 0.00 0.00 0.00 100 953.7
20260507145907 57 278 1.0 3.0 0.00 0.00 0.00 100 953.7
20260507145805 57 0 0.0 3.0 0.00 0.00 0.00 100 953.7
20260507145703 57 0 0.0 1.0 0.00 0.00 0.00 100 953.6
20260507145459 57 0 0.0 2.0 0.00 0.00 0.00 100 953.6
20260507145256 57 0 0.0 2.0 0.00 0.00 0.00 100 953.5
20260507145156 57 0 0.0 4.0 0.00 0.00 0.00 100 953.5
20260507145053 57 0 0.0 4.0 0.00 0.00 0.00 100 953.6
20260507144850 57 191 0.0 4.0 0.00 0.00 0.00 100 953.5
20260507144646 57 0 0.0 2.0 0.00 0.00 0.00 100 953.6
20260507144546 57 0 0.0 2.0 0.00 0.00 0.00 100 953.6
20260507144444 57 0 0.0 2.0 0.00 0.00 0.00 100 953.5
20260507144241 57 0 0.0 2.0 0.00 0.00 0.00 100 953.5
20260507144038 57 0 0.0 2.0 0.00 0.00 0.00 100 953.5
20260507143937 57 0 1.0 5.0 0.00 0.00 0.00 100 953.5
20260507143835 57 0 0.0 5.0 0.00 0.00 0.00 100 953.5
20260507143633 57 0 1.0 5.0 0.00 0.00 0.00 100 953.4
20260507143429 57 0 1.0 3.0 0.00 0.00 0.00 100 953.6
20260507143328 57 0 1.0 3.0 0.00 0.00 0.00 100 953.6
20260507143226 57 220 1.0 4.0 0.00 0.00 0.00 100 953.6
20260507143023 56 0 1.0 4.0 0.00 0.00 0.00 100 953.5
20260507142819 56 0 1.0 4.0 0.00 0.00 0.00 100 953.6
20260507142719 56 0 1.0 3.0 0.00 0.00 0.00 100 953.6
20260507142617 56 0 1.0 3.0 0.00 0.00 0.00 100 953.5
20260507142414 56 0 0.0 3.0 0.00 0.00 0.00 100 953.6
20260507142211 55 0 1.0 3.0 0.00 0.00 0.00 100 953.6
20260507142109 55 0 1.0 5.0 0.00 0.00 0.00 100 953.6
20260507142007 55 0 1.0 5.0 0.00 0.00 0.00 100 953.6
20260507141804 55 184 1.0 6.0 0.00 0.00 0.00 100 953.6
20260507141602 55 0 1.0 6.0 0.00 0.00 0.00 100 953.6
20260507141501 55 0 1.0 4.0 0.00 0.00 0.00 100 953.6
20260507141358 55 0 0.0 4.0 0.00 0.00 0.00 100 953.6
20260507141155 55 0 0.0 3.0 0.00 0.00 0.00 100 953.6
20260507140952 55 0 1.0 3.0 0.00 0.00 0.00 100 953.5
20260507140851 55 0 1.0 3.0 0.00 0.00 0.00 100 953.5
20260507140749 55 0 1.0 3.0 0.00 0.00 0.00 100 953.5
20260507140546 55 122 2.0 4.0 0.00 0.00 0.00 100 953.5
20260507140342 55 143 2.0 5.0 0.00 0.00 0.00 100 953.6
20260507140242 55 149 2.0 5.0 0.00 0.00 0.00 100 953.5
20260507140052 55 148 3.0 5.0 0.00 0.00 0.00 100 953.8
20260507135849 56 124 3.0 4.0 0.00 0.00 0.00 100 953.7
20260507135748 56 122 2.0 4.0 0.00 0.00 0.00 100 953.7
20260507135646 56 120 2.0 4.0 0.00 0.00 0.00 100 953.7
20260507135443 56 128 1.0 3.0 0.00 0.00 0.00 100 953.8
20260507135240 57 163 1.0 2.0 0.00 0.00 0.00 100 953.8
20260507135139 57 173 1.0 3.0 0.00 0.00 0.00 100 953.8
20260507135034 57 169 1.0 3.0 0.00 0.00 0.00 100 953.8
20260507134830 57 147 1.0 3.0 0.00 0.00 0.00 100 953.7
20260507134627 57 0 1.0 2.0 0.00 0.00 0.00 100 953.7
20260507134513 57 159 1.0 2.0 0.00 0.00 0.00 100 953.8
20260507134410 57 157 1.0 2.0 0.00 0.00 0.00 100 953.8
20260507134207 57 162 1.0 2.0 0.00 0.00 0.00 100 953.8
20260507134005 57 163 1.0 2.0 0.00 0.00 0.00 100 953.7
20260507133904 57 136 1.0 2.0 0.00 0.00 0.00 100 953.7
20260507133801 57 132 1.0 2.0 0.00 0.00 0.00 100 953.7
20260507133558 57 138 2.0 3.0 0.00 0.00 0.00 100 953.6
20260507133355 57 104 1.0 3.0 0.00 0.00 0.00 100 953.6
20260507133254 57 75 1.0 2.0 0.00 0.00 0.00 100 953.6
20260507133152 57 68 1.0 3.0 0.00 0.00 0.00 100 953.7
20260507132949 57 98 2.0 5.0 0.00 0.00 0.00 100 953.6
20260507132747 57 141 3.0 6.0 0.00 0.00 0.00 100 953.8
20260507132646 57 147 4.0 6.0 0.00 0.00 0.00 100 953.8
20260507132544 57 150 3.0 6.0 0.00 0.00 0.00 100 953.7
20260507132341 57 132 2.0 6.0 0.00 0.00 0.00 100 953.7
20260507132137 57 74 2.0 6.0 0.00 0.00 0.00 100 953.6
20260507132037 57 71 3.0 6.0 0.00 0.00 0.00 100 953.7
20260507131934 57 63 3.0 7.0 0.00 0.00 0.00 100 953.7
20260507131732 57 43 4.0 7.0 0.00 0.00 0.00 100 953.7
20260507131529 58 30 4.0 8.0 0.00 0.00 0.00 100 953.7
20260507131429 58 28 4.0 8.0 0.00 0.00 0.00 100 953.7
20260507131327 58 29 4.0 8.0 0.00 0.00 0.00 100 953.7
20260507131123 58 30 4.0 6.0 0.00 0.00 0.00 100 953.5
20260507130920 58 26 3.0 6.0 0.00 0.00 0.00 100 953.6
20260507130819 58 30 4.0 6.0 0.00 0.00 0.00 100 953.5
20260507130717 58 34 4.0 6.0 0.00 0.00 0.00 100 953.5
20260507130514 59 31 4.0 6.0 0.00 0.00 0.00 100 953.5
20260507130311 59 24 3.0 6.0 0.00 0.00 0.00 100 953.5
20260507130210 59 13 3.0 6.0 0.00 0.00 0.00 100 953.5
20260507130107 59 19 3.0 6.0 0.00 0.00 0.00 100 953.5
20260507125904 59 21 3.0 6.0 0.00 0.00 0.00 100 953.6
20260507125701 59 31 3.0 5.0 0.00 0.00 0.00 100 953.5
20260507125600 59 32 3.0 4.0 0.00 0.00 0.00 100 953.5
20260507125458 59 40 3.0 5.0 0.00 0.00 0.00 100 953.5
20260507125254 59 53 3.0 6.0 0.00 0.00 0.00 100 953.6
20260507125051 59 68 3.0 6.0 0.00 0.00 0.00 100 953.5
20260507124950 59 76 3.0 6.0 0.00 0.00 0.00 100 953.5
20260507124844 59 66 3.0 6.0 0.00 0.00 0.00 100 953.5
20260507124642 59 62 5.0 8.0 0.00 0.00 0.00 100 953.5
20260507124439 59 57 5.0 8.0 0.00 0.00 0.00 100 953.5
20260507124338 59 57 5.0 7.0 0.00 0.00 0.00 100 953.5
20260507124237 59 55 4.0 7.0 0.00 0.00 0.00 100 953.6
20260507124033 60 65 3.0 5.0 0.00 0.00 0.00 100 953.6
20260507123831 60 50 3.0 5.0 0.00 0.00 0.00 100 953.6
20260507123731 60 48 2.0 5.0 0.00 0.00 0.00 100 953.6
20260507123628 60 48 3.0 6.0 0.00 0.00 0.00 100 953.5
20260507123425 60 47 4.0 6.0 0.00 0.00 0.00 100 953.5
20260507123222 60 47 5.0 8.0 0.00 0.00 0.00 100 953.4
20260507123121 59 50 5.0 8.0 0.00 0.00 0.00 100 953.4
20260507123019 59 55 5.0 8.0 0.00 0.00 0.00 100 953.5
20260507122815 60 80 4.0 7.0 0.00 0.00 0.00 100 953.5
20260507122612 60 111 4.0 7.0 0.00 0.00 0.00 100 953.5
20260507122512 60 128 4.0 8.0 0.00 0.00 0.00 100 953.4
20260507122410 60 129 4.0 8.0 0.00 0.00 0.00 100 953.4
20260507122206 60 107 3.0 8.0 0.00 0.00 0.00 100 953.4
20260507122004 61 65 3.0 7.0 0.00 0.00 0.00 100 953.3
20260507121902 61 60 3.0 7.0 0.00 0.00 0.00 100 953.3
20260507121800 61 51 3.0 4.0 0.00 0.00 0.00 100 953.4
20260507121557 61 19 3.0 5.0 0.00 0.00 0.00 100 953.3
20260507121354 60 7 4.0 5.0 0.00 0.00 0.00 100 953.3
20260507121253 60 8 4.0 6.0 0.00 0.00 0.00 100 953.3
20260507121151 60 1 4.0 6.0 0.00 0.00 0.00 100 953.3
20260507120948 60 357 4.0 6.0 0.00 0.00 0.00 100 953.4
20260507120745 60 357 5.0 7.0 0.00 0.00 0.00 100 953.4
20260507120645 60 354 5.0 7.0 0.00 0.00 0.00 100 953.3
20260507120542 60 349 5.0 7.0 0.00 0.00 0.00 100 953.3
20260507120339 60 345 6.0 8.0 0.00 0.00 0.00 100 953.4
20260507120136 60 345 6.0 8.0 0.00 0.00 0.00 100 953.4
20260507120036 60 341 6.0 8.0 0.00 0.00 0.00 100 953.4
20260507115934 60 339 5.0 7.0 0.00 0.00 0.00 100 953.4
20260507115730 61 330 5.0 8.0 0.00 0.00 0.00 100 953.4
20260507115527 61 332 5.0 8.0 0.00 0.00 0.00 100 953.4
20260507115426 61 331 5.0 8.0 0.00 0.00 0.00 100 953.3
20260507115324 61 330 5.0 7.0 0.00 0.00 0.00 100 953.4
20260507115121 61 324 4.0 6.0 0.00 0.00 0.00 100 953.3
20260507114918 62 321 3.0 6.0 0.00 0.00 0.00 100 953.4
20260507114817 62 317 3.0 5.0 0.00 0.00 0.00 100 953.4
20260507114711 62 311 3.0 5.0 0.00 0.00 0.00 100 953.3
20260507114508 62 301 4.0 7.0 0.00 0.00 0.00 100 953.3
20260507114305 62 303 4.0 7.0 0.00 0.00 0.00 100 953.3
20260507114204 62 302 4.0 7.0 0.00 0.00 0.00 100 953.4
20260507114102 62 306 4.0 8.0 0.00 0.00 0.00 100 953.3
20260507113858 62 316 5.0 8.0 0.00 0.00 0.00 100 953.4
20260507113655 62 318 3.0 7.0 0.00 0.00 0.00 100 953.3
20260507113555 62 319 2.0 4.0 0.00 0.00 0.00 100 953.3
20260507113453 62 321 2.0 4.0 0.00 0.00 0.00 100 953.3
20260507113249 62 344 2.0 4.0 0.00 0.00 0.00 100 953.4
20260507113046 62 21 2.0 4.0 0.00 0.00 0.00 100 953.3
20260507112945 62 81 2.0 5.0 0.00 0.00 0.00 100 953.4
20260507112843 62 107 3.0 6.0 0.00 0.00 0.00 100 953.2
20260507112640 62 130 3.0 6.0 0.00 0.00 0.00 100 953.4
20260507112437 62 128 3.0 8.0 0.00 0.00 0.00 100 953.3
20260507112336 62 116 3.0 8.0 0.00 0.00 0.00 100 953.2
20260507112233 62 90 3.0 8.0 0.00 0.00 0.00 100 953.3
20260507112030 63 342 2.0 6.0 0.00 0.00 0.00 100 953.3
20260507111828 64 290 1.0 6.0 0.00 0.00 0.00 100 953.2
20260507111727 64 0 1.0 5.0 0.00 0.00 0.00 100 953.3
20260507111625 64 0 1.0 5.0 0.00 0.00 0.00 100 953.3
20260507111421 64 218 2.0 6.0 0.00 0.00 0.00 100 953.2
20260507111218 63 275 3.0 7.0 0.00 0.00 0.00 100 953.2
20260507111117 63 279 3.0 7.0 0.00 0.00 0.00 100 953.3
20260507111015 63 285 4.0 7.0 0.00 0.00 0.00 100 953.2
20260507110811 63 299 3.0 6.0 0.00 0.00 0.00 100 953.2
20260507110557 62 320 3.0 6.0 0.00 0.00 0.00 100 953.0
20260507110456 62 307 4.0 7.0 0.00 0.00 0.00 100 953.0
20260507110354 62 295 4.0 7.0 0.00 0.00 0.00 100 953.1
20260507110150 62 289 5.0 8.0 0.00 0.00 0.00 100 953.1
20260507105947 62 289 5.0 8.0 0.00 0.00 0.00 100 953.1
20260507105847 62 299 4.0 8.0 0.00 0.00 0.00 100 953.1
20260507105745 62 302 4.0 7.0 0.00 0.00 0.00 100 953.1
20260507105541 62 317 6.0 11.0 0.00 0.00 0.00 100 953.1
20260507105338 62 314 5.0 11.0 0.00 0.00 0.00 100 953.1
20260507105238 62 309 4.0 11.0 0.00 0.00 0.00 100 953.1
20260507105136 62 300 3.0 10.0 0.00 0.00 0.00 100 953.0
20260507104933 62 288 4.0 8.0 0.00 0.00 0.00 100 953.2
20260507104729 62 288 4.0 8.0 0.00 0.00 0.00 100 953.1
20260507104629 62 288 4.0 8.0 0.00 0.00 0.00 100 953.1
20260507104523 62 262 4.0 16.0 0.00 0.00 0.00 100 953.1
20260507104320 63 254 4.0 16.0 0.00 0.00 0.00 100 953.1
20260507104117 63 264 3.0 12.0 0.00 0.00 0.00 100 953.1
20260507104016 63 265 3.0 9.0 0.00 0.00 0.00 100 953.1
20260507103913 62 281 4.0 10.0 0.00 0.00 0.00 100 953.1
20260507103710 62 285 5.0 10.0 0.00 0.00 0.00 100 953.0
20260507103507 62 299 4.0 8.0 0.00 0.00 0.00 100 953.0
20260507103406 62 301 4.0 7.0 0.00 0.00 0.00 100 952.9
20260507103304 62 295 5.0 8.0 0.00 0.00 0.00 100 953.1
20260507103100 62 288 6.0 12.0 0.00 0.00 0.00 100 952.9
20260507102857 62 290 7.0 12.0 0.00 0.00 0.00 100 952.9
20260507102757 62 286 7.0 12.0 0.00 0.00 0.00 100 952.9
20260507102655 62 285 8.0 11.0 0.00 0.00 0.00 100 952.9
20260507102451 63 282 6.0 11.0 0.00 0.00 0.00 100 952.9
20260507102249 64 266 3.0 11.0 0.00 0.00 0.00 100 952.9
20260507102148 65 0 2.0 4.0 0.00 0.00 0.00 100 952.8
20260507102046 65 0 1.0 4.0 0.00 0.00 0.00 100 953.0
20260507101843 65 0 1.0 4.0 0.00 0.00 0.00 100 952.8
20260507101640 65 0 1.0 4.0 0.00 0.00 0.00 100 952.8
20260507101539 65 0 1.0 3.0 0.00 0.00 0.00 100 952.8
20260507101437 65 0 1.0 3.0 0.00 0.00 0.00 100 952.8
20260507101235 64 279 2.0 6.0 0.00 0.00 0.00 100 952.7
20260507101031 63 284 4.0 7.0 0.00 0.00 0.00 100 952.7
20260507100931 63 285 5.0 8.0 0.00 0.00 0.00 100 952.8
20260507100828 63 287 6.0 8.0 0.00 0.00 0.00 100 952.8
20260507100625 64 286 4.0 8.0 0.00 0.00 0.00 100 952.7
20260507100422 64 258 2.0 7.0 0.00 0.00 0.00 100 952.7
20260507100321 64 235 2.0 8.0 0.00 0.00 0.00 100 952.7
20260507100219 64 237 2.0 9.0 0.00 0.00 0.00 100 952.8
20260507100016 64 243 3.0 10.0 0.00 0.00 0.00 100 952.7
20260507095813 64 234 3.0 10.0 0.00 0.00 0.00 100 952.8
20260507095712 64 228 2.0 10.0 0.00 0.00 0.00 100 952.8
20260507095610 64 235 2.0 10.0 0.00 0.00 0.00 100 952.7
20260507095406 64 259 3.0 12.0 0.00 0.00 0.00 100 952.8
20260507095203 64 264 5.0 12.0 0.00 0.00 0.00 100 952.6
20260507095103 64 262 6.0 12.0 0.00 0.00 0.00 100 952.6
20260507095000 64 257 4.0 11.0 0.00 0.00 0.00 100 952.7
20260507094757 65 241 2.0 10.0 0.00 0.00 0.00 100 952.6
20260507094554 66 230 1.0 10.0 0.00 0.00 0.00 100 952.6
20260507094454 66 235 1.0 4.0 0.00 0.00 0.00 100 952.8
20260507094348 66 240 1.0 4.0 0.00 0.00 0.00 100 952.7
20260507094144 66 259 2.0 8.0 0.00 0.00 0.00 100 952.7
20260507093942 65 261 2.0 9.0 0.00 0.00 0.00 100 952.6
20260507093841 65 253 3.0 10.0 0.00 0.00 0.00 100 952.6
20260507093739 65 242 3.0 10.0 0.00 0.00 0.00 100 952.7
20260507093536 65 231 2.0 10.0 0.00 0.00 0.00 100 952.6
20260507093333 65 230 2.0 8.0 0.00 0.00 0.00 100 952.7
20260507093232 65 223 2.0 8.0 0.00 0.00 0.00 100 952.7
20260507093131 65 234 2.0 8.0 0.00 0.00 0.00 100 952.6
20260507092926 65 251 2.0 8.0 0.00 0.00 0.00 100 952.6
20260507092723 64 268 4.0 8.0 0.00 0.00 0.00 100 952.6
20260507092622 64 268 4.0 8.0 0.00 0.00 0.00 100 952.6
20260507092519 63 261 3.0 8.0 0.00 0.00 0.00 100 952.6
20260507092317 64 238 2.0 8.0 0.00 0.00 0.00 100 952.6
20260507092114 64 253 3.0 12.0 0.00 0.00 0.00 100 952.6
20260507092013 63 256 3.0 12.0 0.00 0.00 0.00 100 952.6
20260507091911 64 254 3.0 12.0 0.00 0.00 0.00 100 952.5
20260507091708 63 248 4.0 13.0 0.00 0.00 0.00 100 952.6
20260507091505 63 256 4.0 13.0 0.00 0.00 0.00 100 952.6
20260507091405 63 257 3.0 9.0 0.00 0.00 0.00 100 952.7
20260507091302 63 258 3.0 7.0 0.00 0.00 0.00 100 952.6
20260507091100 63 226 2.0 5.0 0.00 0.00 0.00 100 952.6
20260507090857 63 252 2.0 10.0 0.00 0.00 0.00 100 952.6
20260507090756 63 245 2.0 10.0 0.00 0.00 0.00 100 952.5
20260507090655 63 237 3.0 10.0 0.00 0.00 0.00 100 952.6
20260507090451 63 220 2.0 9.0 0.00 0.00 0.00 100 952.5
20260507090248 63 227 2.0 9.0 0.00 0.00 0.00 100 952.6
20260507090148 63 237 1.0 9.0 0.00 0.00 0.00 100 952.5
20260507090045 64 0 1.0 7.0 0.00 0.00 0.00 100 952.5
20260507085842 64 0 2.0 7.0 0.00 0.00 0.00 100 952.5
20260507085639 63 218 2.0 6.0 0.00 0.00 0.00 100 952.5
20260507085539 63 233 2.0 6.0 0.00 0.00 0.00 100 952.4
20260507085436 63 241 2.0 6.0 0.00 0.00 0.00 100 952.4
20260507085233 63 253 2.0 8.0 0.00 0.00 0.00 100 952.3
20260507085030 63 0 2.0 8.0 0.00 0.00 0.00 100 952.3
20260507084929 63 236 2.0 7.0 0.00 0.00 0.00 100 952.4
20260507084827 63 239 2.0 8.0 0.00 0.00 0.00 100 952.3
20260507084624 63 227 2.0 8.0 0.00 0.00 0.00 100 952.4
20260507084421 63 216 2.0 8.0 0.00 0.00 0.00 100 952.3
20260507084320 63 214 1.0 8.0 0.00 0.00 0.00 100 952.3
20260507084215 64 0 1.0 8.0 0.00 0.00 0.00 100 952.5
20260507084012 64 0 2.0 9.0 0.00 0.00 0.00 100 952.3
20260507083808 64 240 2.0 9.0 0.00 0.00 0.00 100 952.4
20260507083707 64 233 2.0 9.0 0.00 0.00 0.00 100 952.3
20260507083605 64 222 2.0 7.0 0.00 0.00 0.00 100 952.3
20260507083402 64 215 2.0 8.0 0.00 0.00 0.00 100 952.3
20260507083159 64 222 2.0 8.0 0.00 0.00 0.00 100 952.2
20260507083059 64 231 2.0 8.0 0.00 0.00 0.00 100 952.2
20260507082956 63 0 2.0 8.0 0.00 0.00 0.00 100 952.1
20260507082753 63 225 2.0 8.0 0.00 0.00 0.00 100 952.2
20260507082540 63 221 2.0 11.0 0.00 0.00 0.00 100 952.0
20260507082439 63 226 2.0 11.0 0.00 0.00 0.00 100 952.1
20260507082337 63 220 2.0 11.0 0.00 0.00 0.00 100 952.2
20260507082134 63 217 2.0 10.0 0.00 0.00 0.00 100 952.1
20260507081931 63 237 3.0 12.0 0.00 0.00 0.00 100 952.0
20260507081831 63 246 3.0 14.0 0.00 0.00 0.00 100 952.1
20260507081729 62 255 3.0 14.0 0.00 0.00 0.00 100 952.1
20260507081525 63 246 2.0 14.0 0.00 0.00 0.00 100 952.0
20260507081323 63 0 1.0 6.0 0.00 0.00 0.00 100 952.0
20260507081222 63 232 2.0 7.0 0.00 0.00 0.00 100 952.0
20260507081119 62 252 2.0 9.0 0.00 0.00 0.00 100 952.0
20260507080916 62 248 2.0 9.0 0.00 0.00 0.00 100 951.9
20260507080713 62 235 2.0 9.0 0.00 0.00 0.00 100 951.9
20260507080612 62 238 2.0 8.0 0.00 0.00 0.00 100 951.9
20260507080510 62 223 2.0 9.0 0.00 0.00 0.00 100 951.9
20260507080307 62 223 2.0 9.0 0.00 0.00 0.00 100 951.9
20260507080103 62 240 2.0 10.0 0.00 0.00 0.00 100 951.9
20260507080034 62 232 2.0 10.0 0.00 0.00 0.00 100 951.8
20260507080003 62 232 2.0 10.0 0.00 0.00 0.00 100 951.8
20260507075900 62 229 2.0 10.0 0.00 0.00 0.00 100 951.7
20260507075657 63 223 2.0 10.0 0.00 0.00 0.00 100 951.8
20260507075453 62 219 2.0 10.0 0.00 0.00 0.00 100 951.8
20260507075352 62 217 2.0 10.0 0.00 0.00 0.00 100 951.8
20260507075249 62 221 2.0 10.0 0.00 0.00 0.00 100 951.9
20260507075047 62 223 2.0 10.0 0.00 0.00 0.00 100 951.8
20260507074844 62 247 2.0 8.0 0.00 0.00 0.00 100 951.9
20260507074743 62 0 2.0 8.0 0.00 0.00 0.00 100 951.9
20260507074641 62 241 2.0 10.0 0.00 0.00 0.00 100 951.9
20260507074438 62 216 2.0 10.0 0.00 0.00 0.00 100 951.8
20260507074234 62 206 3.0 14.0 0.00 0.00 0.00 100 951.8
20260507074134 62 215 3.0 14.0 0.00 0.00 0.00 100 951.8
20260507074028 62 217 3.0 14.0 0.00 0.00 0.00 100 951.8
20260507073825 62 228 3.0 7.0 0.00 0.00 0.00 100 951.6
20260507073622 62 225 2.0 8.0 0.00 0.00 0.00 100 951.6
20260507073521 62 0 2.0 8.0 0.00 0.00 0.00 100 951.8
20260507073419 62 0 2.0 8.0 0.00 0.00 0.00 100 951.8
20260507073215 62 0 2.0 8.0 0.00 0.00 0.00 100 951.6
20260507073012 61 0 2.0 7.0 0.00 0.00 0.00 100 951.7
20260507072911 61 0 2.0 10.0 0.00 0.00 0.00 100 951.6
20260507072809 61 236 3.0 16.0 0.00 0.00 0.00 100 951.6
20260507072606 61 230 3.0 16.0 0.00 0.00 0.00 100 951.6
20260507072403 61 226 3.0 13.0 0.00 0.00 0.00 100 951.6
20260507072306 61 223 3.0 13.0 0.00 0.00 0.00 100 951.5
20260507072200 61 218 3.0 13.0 0.00 0.00 0.00 100 951.6
20260507072003 61 235 2.0 13.0 0.00 0.00 0.00 100 951.5
20260507071753 61 243 2.0 7.0 0.00 0.00 0.00 100 951.4
20260507071652 61 231 2.0 7.0 0.00 0.00 0.00 100 951.5
20260507071606 61 229 2.0 9.0 0.00 0.00 0.00 100 951.5
20260507071347 61 238 3.0 19.0 0.00 0.00 0.00 100 951.5
20260507071144 61 234 3.0 19.0 0.00 0.00 0.00 100 951.5
20260507071043 61 236 3.0 19.0 0.00 0.00 0.00 100 951.2
20260507070940 62 236 2.0 8.0 0.00 0.00 0.00 100 951.4
20260507070738 61 234 2.0 11.0 0.00 0.00 0.00 100 951.3
20260507070534 61 269 4.0 15.0 0.00 0.00 0.00 100 951.4
20260507070434 61 269 5.0 15.0 0.00 0.00 0.00 100 951.3
20260507070331 61 269 4.0 15.0 0.00 0.00 0.00 100 951.3
20260507070129 61 242 2.0 10.0 0.00 0.00 0.00 100 951.3
20260507065925 61 233 2.0 11.0 0.00 0.00 0.00 100 951.3
20260507065825 61 227 3.0 11.0 0.00 0.00 0.00 100 951.2
20260507065722 61 227 3.0 11.0 0.00 0.00 0.00 100 951.3
20260507065519 61 220 3.0 17.0 0.00 0.00 0.00 100 951.2
20260507065315 61 234 3.0 17.0 0.00 0.00 0.00 100 951.2
20260507065215 61 248 4.0 14.0 0.00 0.00 0.00 100 951.2
20260507065113 61 258 5.0 13.0 0.00 0.00 0.00 100 951.2
20260507064909 61 271 5.0 16.0 0.00 0.00 0.00 100 951.1
20260507064706 62 260 2.0 12.0 0.00 0.00 0.00 100 951.1
20260507064605 62 223 2.0 6.0 0.00 0.00 0.00 100 951.1
20260507064503 62 217 2.0 7.0 0.00 0.00 0.00 100 951.2
20260507064300 62 220 2.0 10.0 0.00 0.00 0.00 100 951.2
20260507064056 62 222 2.0 10.0 0.00 0.00 0.00 100 951.2
20260507063955 62 220 2.0 10.0 0.00 0.00 0.00 100 951.2
20260507063850 62 234 2.0 9.0 0.00 0.00 0.00 100 951.1
20260507063647 62 253 2.0 10.0 0.00 0.00 0.00 100 951.3
20260507063443 62 247 2.0 13.0 0.00 0.00 0.00 100 951.2
20260507063342 62 249 2.0 13.0 0.00 0.00 0.00 100 951.2
20260507063240 61 254 2.0 13.0 0.00 0.00 0.00 100 951.2
20260507063037 61 260 3.0 18.0 0.00 0.00 0.00 100 951.1
20260507062841 61 248 4.0 18.0 0.00 0.00 0.00 100 951.2
20260507062732 61 243 4.0 18.0 0.00 0.00 0.00 100 951.0
20260507062630 61 240 4.0 18.0 0.00 0.00 0.00 100 951.0
20260507062426 61 224 3.0 13.0 0.00 0.00 0.00 100 951.1
20260507062223 61 222 3.0 13.0 0.00 0.00 0.00 100 951.1
20260507062123 60 225 2.0 12.0 0.00 0.00 0.00 100 951.1
20260507062020 60 237 2.0 17.0 0.00 0.00 0.00 100 951.1
20260507061817 60 240 4.0 17.0 0.00 0.00 0.00 100 951.1
20260507061613 60 238 5.0 17.0 0.00 0.00 0.00 100 950.9
20260507061513 60 244 6.0 20.0 0.00 0.00 0.00 100 950.9
20260507061410 60 241 5.0 20.0 0.00 0.00 0.00 100 951.0
20260507061207 60 249 5.0 20.0 0.00 0.00 0.00 100 950.8
20260507061004 60 247 3.0 12.0 0.00 0.00 0.00 100 950.9
20260507060904 60 242 3.0 14.0 0.00 0.00 0.00 100 951.0
20260507060801 60 242 3.0 14.0 0.00 0.00 0.00 100 950.9
20260507060557 60 240 4.0 14.0 0.00 0.00 0.00 100 950.9
20260507060354 60 218 2.0 9.0 0.00 0.00 0.00 100 950.9
20260507060253 60 214 2.0 9.0 0.00 0.00 0.00 100 950.8
20260507060150 60 215 3.0 12.0 0.00 0.00 0.00 100 950.8
20260507055958 60 237 4.0 14.0 0.00 0.00 0.00 100 950.7
20260507055744 60 239 3.0 10.0 0.00 0.00 0.00 100 950.7
20260507055643 60 234 2.0 10.0 0.00 0.00 0.00 100 950.7
20260507055541 60 238 2.0 9.0 0.00 0.00 0.00 100 950.6
20260507055338 59 251 3.0 16.0 0.00 0.00 0.00 100 950.6
20260507055134 59 255 3.0 16.0 0.00 0.00 0.00 100 950.6
20260507055033 59 262 2.0 16.0 0.00 0.00 0.00 100 950.6
20260507054931 59 243 2.0 15.0 0.00 0.00 0.00 100 950.6
20260507054715 59 237 2.0 15.0 0.00 0.00 0.00 100 950.5
20260507054511 59 235 2.0 10.0 0.00 0.00 0.00 100 950.4
20260507054410 59 238 2.0 10.0 0.00 0.00 0.00 100 950.5
20260507054307 59 229 2.0 10.0 0.00 0.00 0.00 100 950.4
20260507054104 59 216 2.0 10.0 0.00 0.00 0.00 100 950.4
20260507053902 59 212 2.0 10.0 0.00 0.00 0.00 100 950.4
20260507053801 59 218 2.0 10.0 0.00 0.00 0.00 100 950.3
20260507053655 59 223 2.0 11.0 0.00 0.00 0.00 100 950.3
20260507053452 59 218 2.0 12.0 0.00 0.00 0.00 100 950.4
20260507053249 59 221 3.0 12.0 0.00 0.00 0.00 100 950.3
20260507053148 59 216 2.0 10.0 0.00 0.00 0.00 100 950.4
20260507053046 59 214 2.0 10.0 0.00 0.00 0.00 100 950.4
20260507052843 59 199 3.0 10.0 0.00 0.00 0.00 100 950.3
20260507052640 59 213 2.0 10.0 0.00 0.00 0.00 100 950.3
20260507052539 59 216 2.0 10.0 0.00 0.00 0.00 100 950.5
20260507052437 59 212 2.0 10.0 0.00 0.00 0.00 100 950.5
20260507052234 59 217 2.0 10.0 0.00 0.00 0.00 100 950.4
20260507052031 59 230 2.0 14.0 0.00 0.00 0.00 100 950.4
20260507051931 59 224 2.0 14.0 0.00 0.00 0.00 100 950.5
20260507051828 59 231 2.0 14.0 0.00 0.00 0.00 100 950.5
20260507051624 59 225 2.0 13.0 0.00 0.00 0.00 100 950.3
20260507051421 59 221 2.0 11.0 0.00 0.00 0.00 100 950.4
20260507051321 59 221 3.0 11.0 0.00 0.00 0.00 100 950.4
20260507051219 59 215 3.0 11.0 0.00 0.00 0.00 100 950.3
20260507051016 59 217 2.0 11.0 0.00 0.00 0.00 100 950.3
20260507050813 59 218 2.0 8.0 0.00 0.00 0.00 100 950.3
20260507050712 59 231 2.0 9.0 0.00 0.00 0.00 100 950.1
20260507050610 59 231 2.0 9.0 0.00 0.00 0.00 100 950.2
20260507050406 59 229 2.0 8.0 0.00 0.00 0.00 100 950.2
20260507050203 58 219 2.0 12.0 0.00 0.00 0.00 100 950.1
20260507045959 58 222 2.0 12.0 0.00 0.00 0.00 100 950.1
20260507045756 58 234 2.0 8.0 0.00 0.00 0.00 100 950.2
20260507045553 58 0 2.0 8.0 0.00 0.00 0.00 100 950.3
20260507045452 58 0 2.0 8.0 0.00 0.00 0.00 100 950.1
20260507045349 58 0 2.0 9.0 0.00 0.00 0.00 100 950.2
20260507045146 58 0 2.0 9.0 0.00 0.00 0.00 100 950.1
20260507044943 58 0 2.0 9.0 0.00 0.00 0.00 100 950.1
20260507044842 58 0 2.0 9.0 0.00 0.00 0.00 100 950.0
20260507044740 58 0 2.0 11.0 0.00 0.00 0.00 100 950.1
20260507044537 58 238 2.0 11.0 0.00 0.00 0.00 100 950.2
20260507044341 58 243 2.0 8.0 0.00 0.00 0.00 100 950.2
20260507044233 58 0 2.0 7.0 0.00 0.00 0.00 100 950.3
20260507044131 58 226 2.0 8.0 0.00 0.00 0.00 100 950.3
20260507043932 58 222 2.0 8.0 0.00 0.00 0.00 100 950.2
20260507043725 58 228 2.0 10.0 0.00 0.00 0.00 100 950.2
20260507043624 58 236 2.0 10.0 0.00 0.00 0.00 100 950.3
20260507043518 58 237 2.0 10.0 0.00 0.00 0.00 100 950.2
20260507043315 58 233 2.0 8.0 0.00 0.00 0.00 100 950.2
20260507043112 58 221 2.0 8.0 0.00 0.00 0.00 100 950.3
20260507043011 58 228 2.0 6.0 0.00 0.00 0.00 100 950.2
20260507042909 58 0 2.0 6.0 0.00 0.00 0.00 100 950.3
20260507042706 58 234 2.0 9.0 0.00 0.00 0.00 100 950.2
20260507042503 58 238 2.0 10.0 0.00 0.00 0.00 100 950.3
20260507042402 58 248 2.0 10.0 0.00 0.00 0.00 100 950.2
20260507042300 58 248 2.0 10.0 0.00 0.00 0.00 100 950.1
20260507042057 58 240 2.0 9.0 0.00 0.00 0.00 100 950.1
20260507041853 58 237 2.0 8.0 0.00 0.00 0.00 100 950.1
20260507041752 58 226 2.0 8.0 0.00 0.00 0.00 100 950.1
20260507041650 57 230 2.0 7.0 0.00 0.00 0.00 100 950.1
20260507041447 57 0 2.0 8.0 0.00 0.00 0.00 100 950.0
20260507041244 57 0 2.0 8.0 0.00 0.00 0.00 100 950.0
20260507041143 57 0 2.0 8.0 0.00 0.00 0.00 100 950.1
20260507041040 57 0 2.0 7.0 0.00 0.00 0.00 100 950.1
20260507040837 57 0 2.0 7.0 0.00 0.00 0.00 100 950.0
20260507040634 57 232 2.0 7.0 0.00 0.00 0.00 100 950.0
20260507040533 57 235 2.0 7.0 0.00 0.00 0.00 100 950.0
20260507040431 57 235 2.0 8.0 0.00 0.00 0.00 100 950.0
20260507040227 57 225 2.0 8.0 0.00 0.00 0.00 100 949.9
20260507040025 57 213 2.0 10.0 0.00 0.00 0.00 100 949.9
20260507035924 57 215 2.0 10.0 0.00 0.00 0.00 100 949.9
20260507035825 57 217 2.0 10.0 0.00 0.00 0.00 100 949.9
20260507035618 57 221 2.0 16.0 0.00 0.00 0.00 100 949.7
20260507035415 57 238 3.0 16.0 0.00 0.00 0.00 100 949.7
20260507035315 57 243 3.0 16.0 0.00 0.00 0.00 100 949.6
20260507035212 57 245 3.0 14.0 0.00 0.00 0.00 100 949.8
20260507035009 57 242 2.0 12.0 0.00 0.00 0.00 100 949.7
20260507034806 57 225 1.0 7.0 0.00 0.00 0.00 100 949.7
20260507034705 57 0 1.0 5.0 0.00 0.00 0.00 100 949.7
20260507034603 57 0 1.0 6.0 0.00 0.00 0.00 100 949.7
20260507034359 57 0 2.0 11.0 0.00 0.00 0.00 100 949.6
20260507034156 57 226 2.0 11.0 0.00 0.00 0.00 100 949.4
20260507034055 57 226 2.0 11.0 0.00 0.00 0.00 100 949.3
20260507033952 57 221 2.0 10.0 0.00 0.00 0.00 100 949.4
20260507033750 57 215 2.0 11.0 0.00 0.00 0.00 100 949.2
20260507033547 57 216 2.0 9.0 0.00 0.00 0.00 100 949.4
20260507033446 57 0 2.0 7.0 0.00 0.00 0.00 100 949.2
20260507033343 57 0 2.0 13.0 0.00 0.00 0.00 100 949.3
20260507033136 57 220 2.0 13.0 0.00 0.00 0.00 100 949.2
20260507032933 57 217 3.0 14.0 0.00 0.00 0.00 100 949.2
20260507032833 57 209 3.0 14.0 0.00 0.00 0.00 100 949.1
20260507032730 57 201 3.0 14.0 0.00 0.00 0.00 100 949.2
20260507032527 57 192 4.0 15.0 0.00 0.00 0.00 100 949.2
20260507032324 57 196 2.0 15.0 0.00 0.00 0.00 100 949.3
20260507032223 57 212 2.0 8.0 0.00 0.00 0.00 100 949.4
20260507032121 57 208 2.0 8.0 0.00 0.00 0.00 100 949.4
20260507031927 57 207 2.0 6.0 0.00 0.00 0.00 100 949.4
20260507031719 57 206 1.0 5.0 0.00 0.00 0.00 100 949.5
20260507031615 57 208 2.0 8.0 0.00 0.00 0.00 100 949.4
20260507031513 57 211 2.0 8.0 0.00 0.00 0.00 100 949.4
20260507031309 57 209 2.0 8.0 0.00 0.00 0.00 100 949.5
20260507031106 57 210 2.0 10.0 0.00 0.00 0.00 100 949.5
20260507031005 57 213 2.0 10.0 0.00 0.00 0.00 100 949.5
20260507030917 57 216 2.0 10.0 0.00 0.00 0.00 100 949.5
20260507030649 57 223 2.0 8.0 0.00 0.00 0.00 100 949.4
20260507030445 57 222 2.0 8.0 0.00 0.00 0.00 100 949.5
20260507030345 57 221 2.0 7.0 0.00 0.00 0.00 100 949.5
20260507030242 57 226 2.0 7.0 0.00 0.00 0.00 100 949.5
20260507030043 57 0 1.0 7.0 0.00 0.00 0.00 100 949.5
20260507025836 57 195 2.0 8.0 0.00 0.00 0.00 100 949.5
20260507025735 57 202 2.0 13.0 0.00 0.00 0.00 100 949.5
20260507025632 57 207 2.0 13.0 0.00 0.00 0.00 100 949.6
20260507025429 57 204 2.0 13.0 0.00 0.00 0.00 100 949.5
20260507025226 57 232 1.0 5.0 0.00 0.00 0.00 100 949.5
20260507025125 57 0 1.0 6.0 0.00 0.00 0.00 100 949.5
20260507025023 57 0 2.0 6.0 0.00 0.00 0.00 100 949.6
20260507024820 57 211 2.0 10.0 0.00 0.00 0.00 100 949.6
20260507024618 57 210 3.0 12.0 0.00 0.00 0.00 100 949.6
20260507024517 57 209 3.0 13.0 0.00 0.00 0.00 100 949.6
20260507024415 57 206 2.0 13.0 0.00 0.00 0.00 100 949.5
20260507024212 57 203 2.0 9.0 0.00 0.00 0.00 100 949.6
20260507024009 57 199 2.0 9.0 0.00 0.00 0.00 100 949.6
20260507023908 57 204 2.0 7.0 0.00 0.00 0.00 100 949.5
20260507023806 57 200 2.0 7.0 0.00 0.00 0.00 100 949.6
20260507023602 57 201 2.0 6.0 0.00 0.00 0.00 100 949.5
20260507023359 57 200 2.0 6.0 0.00 0.00 0.00 100 949.6
20260507023303 57 195 2.0 8.0 0.00 0.00 0.00 100 949.6
20260507023154 57 199 2.0 8.0 0.00 0.00 0.00 100 949.6
20260507022954 58 223 2.0 8.0 0.00 0.00 0.00 100 949.6
20260507022748 58 207 3.0 14.0 0.00 0.00 0.00 100 949.7
20260507022647 58 197 3.0 14.0 0.00 0.00 0.00 100 949.6
20260507022545 58 191 3.0 14.0 0.00 0.00 0.00 100 949.5
20260507022341 58 236 2.0 7.0 0.00 0.00 0.00 100 949.6
20260507022138 58 213 3.0 12.0 0.00 0.00 0.00 100 949.6
20260507022037 58 208 3.0 12.0 0.00 0.00 0.00 100 949.7
20260507021935 58 195 3.0 12.0 0.00 0.00 0.00 100 949.4
20260507021732 58 191 2.0 12.0 0.00 0.00 0.00 100 949.6
20260507021528 58 180 3.0 12.0 0.00 0.00 0.00 100 949.6
20260507021427 58 181 3.0 12.0 0.00 0.00 0.00 100 949.5
20260507021325 58 182 3.0 12.0 0.00 0.00 0.00 100 949.5
20260507021122 58 187 2.0 9.0 0.00 0.00 0.00 100 949.6
20260507020918 58 0 2.0 6.0 0.00 0.00 0.00 100 949.6
20260507020817 58 239 2.0 8.0 0.00 0.00 0.00 100 949.7
20260507020715 58 235 2.0 8.0 0.00 0.00 0.00 100 949.6
20260507020512 58 214 2.0 8.0 0.00 0.00 0.00 100 949.6
20260507020308 58 219 2.0 12.0 0.00 0.00 0.00 100 949.6
20260507020207 58 197 3.0 12.0 0.00 0.00 0.00 100 949.6
20260507020105 58 201 4.0 12.0 0.00 0.00 0.00 100 949.4
20260507015902 58 192 4.0 12.0 0.00 0.00 0.00 100 949.5
20260507015659 58 182 4.0 17.0 0.00 0.00 0.00 100 949.3
20260507015558 58 182 4.0 17.0 0.00 0.00 0.00 100 949.5
20260507015456 58 184 5.0 17.0 0.00 0.00 0.00 100 949.2
20260507015252 58 204 3.0 13.0 0.00 0.00 0.00 100 949.3
20260507015049 58 206 3.0 12.0 0.00 0.00 0.00 100 949.6
20260507014949 58 196 4.0 13.0 0.00 0.00 0.00 100 949.7
20260507014847 58 190 4.0 13.0 0.00 0.00 0.00 100 949.7
20260507014643 58 184 5.0 20.0 0.00 0.00 0.00 100 949.6
20260507014439 58 181 4.0 20.0 0.00 0.00 0.00 100 949.5
20260507014338 58 176 4.0 20.0 0.00 0.00 0.00 100 949.5
20260507014236 58 185 3.0 13.0 0.00 0.00 0.00 100 949.6
20260507014036 58 199 4.0 13.0 0.00 0.00 0.00 100 949.7
20260507013829 58 210 3.0 13.0 0.00 0.00 0.00 100 949.7
20260507013728 58 194 2.0 9.0 0.00 0.00 0.00 100 949.7
20260507013625 58 191 3.0 8.0 0.00 0.00 0.00 100 949.7
20260507013422 58 194 2.0 8.0 0.00 0.00 0.00 100 949.8
20260507013219 58 209 2.0 13.0 0.00 0.00 0.00 100 949.9
20260507013118 58 217 2.0 13.0 0.00 0.00 0.00 100 949.8
20260507013013 58 211 2.0 13.0 0.00 0.00 0.00 100 949.8
20260507012810 58 219 1.0 10.0 0.00 0.00 0.00 100 950.0
20260507012607 58 0 1.0 6.0 0.00 0.00 0.00 100 949.9
20260507012506 58 0 1.0 6.0 0.00 0.00 0.00 100 949.8
20260507012404 58 209 2.0 10.0 0.00 0.00 0.00 100 949.9
20260507012201 58 200 2.0 10.0 0.00 0.00 0.00 100 949.8
20260507011958 59 182 2.0 16.0 0.00 0.00 0.00 100 949.7
20260507011857 59 176 3.0 16.0 0.00 0.00 0.00 100 949.7
20260507011755 59 176 4.0 16.0 0.00 0.00 0.00 100 949.6
20260507011552 59 180 3.0 12.0 0.00 0.00 0.00 100 949.5
20260507011349 59 200 3.0 14.0 0.00 0.00 0.00 100 949.6
20260507011253 59 193 3.0 14.0 0.00 0.00 0.00 100 949.4
20260507011146 59 194 4.0 14.0 0.00 0.00 0.00 100 949.4
20260507010943 59 176 5.0 17.0 0.00 0.00 0.00 100 949.4
20260507010739 59 172 5.0 17.0 0.00 0.00 0.00 100 949.2
20260507010639 59 177 4.0 16.0 0.00 0.00 0.00 100 949.4
20260507010536 59 181 3.0 16.0 0.00 0.00 0.00 100 949.4
20260507010333 59 180 2.0 11.0 0.00 0.00 0.00 100 949.5
20260507010130 59 175 3.0 11.0 0.00 0.00 0.00 100 949.5
20260507010029 59 174 3.0 11.0 0.00 0.00 0.00 100 949.5
20260507005927 59 177 2.0 7.0 0.00 0.00 0.00 100 949.6
20260507005724 59 199 2.0 6.0 0.00 0.00 0.00 100 949.4
20260507005520 59 200 2.0 11.0 0.00 0.00 0.00 100 949.5
20260507005420 59 201 2.0 11.0 0.00 0.00 0.00 100 949.3
20260507005317 59 212 2.0 11.0 0.00 0.00 0.00 100 949.3
20260507005114 59 215 2.0 9.0 0.00 0.00 0.00 100 949.3
20260507004910 59 197 2.0 7.0 0.00 0.00 0.00 100 949.5
20260507004810 59 173 2.0 7.0 0.00 0.00 0.00 100 949.5
20260507004708 59 176 3.0 7.0 0.00 0.00 0.00 100 949.4
20260507004505 59 197 3.0 12.0 0.00 0.00 0.00 100 949.2
20260507004302 59 216 3.0 12.0 0.00 0.00 0.00 100 949.3
20260507004202 59 214 3.0 12.0 0.00 0.00 0.00 100 949.2
20260507004059 59 201 2.0 10.0 0.00 0.00 0.00 100 949.4
20260507003856 59 211 2.0 10.0 0.00 0.00 0.00 100 949.3
20260507003653 59 205 2.0 10.0 0.00 0.00 0.00 100 949.2
20260507003552 59 206 2.0 9.0 0.00 0.00 0.00 100 949.2
20260507003450 59 197 2.0 10.0 0.00 0.00 0.00 100 949.2
20260507003247 59 204 2.0 10.0 0.00 0.00 0.00 100 949.2
20260507003044 59 184 2.0 10.0 0.00 0.00 0.00 100 949.1
20260507002943 59 184 3.0 9.0 0.00 0.00 0.00 100 949.1
20260507002825 59 189 3.0 9.0 0.00 0.00 0.00 100 949.2
20260507002622 59 185 2.0 9.0 0.00 0.00 0.00 100 949.1
20260507002418 60 194 1.0 7.0 0.00 0.00 0.00 100 949.2
20260507002318 60 212 1.0 6.0 0.00 0.00 0.00 100 949.3
20260507002219 60 208 2.0 6.0 0.00 0.00 0.00 100 949.2
20260507002012 60 177 3.0 12.0 0.00 0.00 0.00 100 949.3
20260507001809 60 182 3.0 12.0 0.00 0.00 0.00 100 949.1
20260507001709 60 197 2.0 12.0 0.00 0.00 0.00 100 949.1
20260507001606 60 248 2.0 12.0 0.00 0.00 0.00 100 949.1
20260507001403 60 222 2.0 10.0 0.00 0.00 0.00 100 949.2
20260507001201 60 209 2.0 10.0 0.00 0.00 0.00 100 949.1
20260507001101 60 208 2.0 11.0 0.00 0.00 0.00 100 949.1
20260507000958 60 207 2.0 11.0 0.00 0.00 0.00 100 949.1
20260507000756 60 217 3.0 13.0 0.00 0.00 0.00 100 949.0
20260507000552 60 192 4.0 14.0 0.00 0.00 0.00 100 949.1
20260507000451 60 182 5.0 15.0 0.00 0.00 0.00 100 949.0
20260507000350 60 180 5.0 15.0 0.00 0.00 0.00 100 949.0
20260507000146 60 194 2.0 15.0 0.00 0.00 0.00 100 948.9
20260506235943 60 190 3.0 14.0 0.00 0.00 0.00 100 948.9
20260506235842 60 185 4.0 20.0 0.00 0.00 0.00 100 948.8
20260506235740 60 179 6.0 20.0 0.00 0.00 0.00 100 948.8
20260506235538 60 173 8.0 24.0 0.00 0.00 0.00 100 948.7
20260506235334 60 170 6.0 24.0 0.00 0.00 0.00 100 948.7
20260506235234 60 174 5.0 14.0 0.00 0.00 0.00 100 948.8
20260506235132 60 176 3.0 14.0 0.00 0.00 0.00 100 948.9
20260506234928 60 182 4.0 16.0 0.00 0.00 0.00 100 948.9
20260506234725 60 185 4.0 16.0 0.00 0.00 0.00 100 948.9
20260506234624 60 184 4.0 16.0 0.00 0.00 0.00 100 948.9
20260506234525 60 183 3.0 11.0 0.00 0.00 0.00 100 949.0
20260506234318 60 198 3.0 11.0 0.00 0.00 0.00 100 948.9
20260506234115 60 210 3.0 11.0 0.00 0.00 0.00 100 949.0
20260506234015 61 216 3.0 11.0 0.00 0.00 0.00 100 948.9
20260506233913 60 217 3.0 11.0 0.00 0.00 0.00 100 949.0
20260506233709 60 215 2.0 10.0 0.00 0.00 0.00 100 949.1
20260506233506 60 206 2.0 10.0 0.00 0.00 0.00 100 949.1
20260506233405 60 206 2.0 9.0 0.00 0.00 0.00 100 949.1
20260506233302 60 201 2.0 7.0 0.00 0.00 0.00 100 949.0
20260506233059 60 193 2.0 10.0 0.00 0.00 0.00 100 949.1
20260506232856 60 200 2.0 10.0 0.00 0.00 0.00 100 948.9
20260506232755 60 198 2.0 10.0 0.00 0.00 0.00 100 949.1
20260506232649 60 213 2.0 6.0 0.00 0.00 0.00 100 949.0
20260506232454 60 221 2.0 8.0 0.00 0.00 0.00 100 949.0
20260506232243 61 214 2.0 12.0 0.00 0.00 0.00 100 949.0
20260506232142 61 212 2.0 12.0 0.00 0.00 0.00 100 949.0
20260506232040 61 214 2.0 12.0 0.00 0.00 0.00 100 949.0
20260506231836 61 216 2.0 12.0 0.00 0.00 0.00 100 948.9
20260506231633 61 220 2.0 12.0 0.00 0.00 0.00 100 948.9
20260506231532 61 226 2.0 14.0 0.00 0.00 0.00 100 948.9
20260506231429 61 240 2.0 14.0 0.00 0.00 0.00 100 948.8
20260506231226 61 222 3.0 14.0 0.00 0.00 0.00 100 948.8
20260506231024 61 219 3.0 10.0 0.00 0.00 0.00 100 948.8
20260506230923 61 219 3.0 11.0 0.00 0.00 0.00 100 948.8
20260506230826 61 208 3.0 12.0 0.00 0.00 0.00 100 948.9
20260506230617 61 209 3.0 12.0 0.00 0.00 0.00 100 948.8
20260506230414 61 234 2.0 13.0 0.00 0.00 0.00 100 948.8
20260506230313 61 230 2.0 13.0 0.00 0.00 0.00 100 948.7
20260506230211 61 218 2.0 13.0 0.00 0.00 0.00 100 948.7
20260506230007 61 216 2.0 13.0 0.00 0.00 0.00 100 948.8
20260506225804 61 193 3.0 18.0 0.00 0.00 0.00 100 948.9
20260506225703 61 198 4.0 18.0 0.00 0.00 0.00 100 948.9
20260506225601 61 194 4.0 18.0 0.00 0.00 0.00 100 948.7
20260506225358 61 207 3.0 13.0 0.00 0.00 0.00 100 949.0
20260506225156 61 197 3.0 16.0 0.00 0.00 0.00 100 949.0
20260506225055 61 194 4.0 16.0 0.00 0.00 0.00 100 948.9
20260506224952 62 195 4.0 16.0 0.00 0.00 0.00 100 948.9
20260506224749 62 192 4.0 20.0 0.00 0.00 0.00 100 949.0
20260506224546 62 187 4.0 20.0 0.00 0.00 0.00 100 949.0
20260506224445 62 186 4.0 20.0 0.00 0.00 0.00 100 948.9
20260506224342 62 192 4.0 24.0 0.00 0.00 0.00 100 948.8
20260506224139 62 191 4.0 24.0 0.00 0.00 0.00 100 949.0
20260506223935 62 189 4.0 17.0 0.00 0.00 0.00 100 948.8
20260506223835 62 190 4.0 17.0 0.00 0.00 0.00 100 948.9
20260506223732 62 195 4.0 16.0 0.00 0.00 0.00 100 948.8
20260506223529 62 213 3.0 16.0 0.00 0.00 0.00 100 948.9
20260506223326 62 209 4.0 16.0 0.00 0.00 0.00 100 948.8
20260506223225 62 202 4.0 17.0 0.00 0.00 0.00 100 948.8
20260506223123 62 204 4.0 17.0 0.00 0.00 0.00 100 948.9
20260506222920 62 203 4.0 20.0 0.00 0.00 0.00 100 948.8
20260506222717 62 196 4.0 20.0 0.00 0.00 0.00 100 948.9
20260506222616 62 195 4.0 20.0 0.00 0.00 0.00 100 948.8
20260506222511 62 205 4.0 11.0 0.00 0.00 0.00 100 948.9
20260506222308 62 203 3.0 13.0 0.00 0.00 0.00 100 948.9
20260506222105 62 198 4.0 23.0 0.00 0.00 0.00 100 948.8
20260506222005 62 193 5.0 23.0 0.00 0.00 0.00 100 948.8
20260506221903 62 197 5.0 23.0 0.00 0.00 0.00 100 948.5
20260506221700 62 199 4.0 16.0 0.00 0.00 0.00 100 948.8
20260506221456 62 206 3.0 12.0 0.00 0.00 0.00 100 948.7
20260506221355 62 211 3.0 11.0 0.00 0.00 0.00 100 948.8
20260506221253 62 207 4.0 18.0 0.00 0.00 0.00 100 948.7
20260506221049 62 194 4.0 18.0 0.00 0.00 0.00 100 948.7
20260506220846 62 213 3.0 14.0 0.00 0.00 0.00 100 948.6
20260506220745 62 226 3.0 9.0 0.00 0.00 0.00 100 948.8
20260506220643 62 222 3.0 11.0 0.00 0.00 0.00 100 948.8
20260506220441 62 209 4.0 13.0 0.00 0.00 0.00 100 948.8
20260506220238 62 203 4.0 19.0 0.00 0.00 0.00 100 948.9
20260506220137 62 205 4.0 19.0 0.00 0.00 0.00 100 949.0
20260506220034 62 207 3.0 19.0 0.00 0.00 0.00 100 948.8
20260506215831 62 210 3.0 10.0 0.00 0.00 0.00 100 948.7
20260506215628 62 204 3.0 12.0 0.00 0.00 0.00 100 948.7
20260506215527 62 206 3.0 12.0 0.00 0.00 0.00 100 948.8
20260506215425 62 214 3.0 12.0 0.00 0.00 0.00 100 948.8
20260506215222 62 218 3.0 10.0 0.00 0.00 0.00 100 948.8
20260506215019 62 208 3.0 12.0 0.00 0.00 0.00 100 948.8